Flag for United Kingdom Weather past 2 weeks in Cambridge, England, United Kingdom

Now
61 °F

Clear.


Feels Like: 61 °F
Forecast: 55 / 73 °F
Wind: 2 mph from North

Location: Cambridge Airport

Current Time: Aug 2, 2014 at 8:13:26 AM

Latest Report: Aug 2, 2014 at 7:20 AM


Visibility: 6 mi

Pressure: 29.65 "Hg

Humidity: 88%

Dew point: 57 °F

Location of CambridgeLocation

Historic Weather in Cambridge — Graph

°F

Cambridge temperature yesterday

Maximum temperature yesterday: 77 °F (at 2:20 PM)
Minimum temperature yesterday: 57 °F (at 5:20 AM)
Average temperature yesterday: 69 °F

Past Weeks' High & Low Weather Summary

 TemperatureHumidityPressure
High86 °F (Jul 18, 3:50 PM)100% (Jul 25, 5:20 AM)30.21 "Hg (Jul 25, 5:20 AM)
Low54 °F (Jul 31, 5:50 AM)36% (Jul 27, 4:50 PM)29.65 "Hg (Aug 2, 5:20 AM)
Average71 °F67%29.97 "Hg
* Reported Jul 18 6:20 AM — Aug 2 6:50 AM, Cambridge, Weather by CustomWeather, © 2014

Note: Actual official high and low records may vary slightly from our data, if they occured in-between our weather recording intervals... More about our weather records

Advertising

Cambridge weather history for previous 24 hours

 ConditionsComfort  
Time TempWeatherWind HumidityBarometerVisibility
6:50 AM
Aug 2
59 °FClear.2 mph94%29.65 "Hg6 mi
6:20 AM59 °FPassing clouds.2 mph94%29.65 "Hg5 mi
5:50 AM59 °FPassing clouds.1 mph94%29.65 "Hg5 mi
5:20 AM59 °FPassing clouds.3 mph94%29.65 "Hg5 mi
8:20 PM
Aug 1
68 °FScattered clouds.7 mph69%29.71 "HgN/A
7:50 PM70 °FScattered clouds.10 mph64%29.71 "HgN/A
7:20 PM72 °FScattered clouds.9 mph53%29.71 "HgN/A
6:50 PM73 °FPassing clouds.9 mph53%29.71 "HgN/A
6:20 PM73 °FPassing clouds.10 mph53%29.68 "HgN/A
5:50 PM73 °FScattered clouds.10 mph57%29.68 "HgN/A
5:20 PM73 °FScattered clouds.10 mph53%29.71 "HgN/A
4:50 PM75 °FScattered clouds.12 mph50%29.71 "HgN/A
4:20 PM75 °FScattered clouds.9 mph50%29.71 "HgN/A
3:50 PM75 °FScattered clouds.8 mph47%29.71 "HgN/A
3:20 PM75 °FScattered clouds.8 mph44%29.71 "HgN/A
2:50 PM77 °FScattered clouds.9 mph42%29.74 "HgN/A
2:20 PM77 °FScattered clouds.10 mph42%29.74 "HgN/A
1:50 PM73 °FScattered clouds.6 mph53%29.74 "HgN/A
1:20 PM73 °FScattered clouds.10 mph50%29.74 "HgN/A
12:50 PM73 °FScattered clouds.12 mph53%29.77 "HgN/A
12:20 PM73 °FScattered clouds.10 mph57%29.77 "HgN/A
11:50 AM72 °FScattered clouds.9 mph57%29.77 "HgN/A
10:50 AM72 °FScattered clouds.10 mph65%29.80 "HgN/A
10:20 AM70 °FScattered clouds.10 mph73%29.80 "HgN/A
9:50 AM68 °FScattered clouds.8 mph73%29.80 "HgN/A
9:20 AM66 °FScattered clouds.7 mph78%29.80 "HgN/A
8:50 AM66 °FScattered clouds.7 mph83%29.80 "HgN/A
8:20 AM64 °FScattered clouds.6 mph88%29.80 "HgN/A
Weather by CustomWeather, © 2014

See weather overviewHow to use our weather pages